Location: Hopewell Observatory
(38.8698°N, 77.6988°W)
Time: 19:15:28
(UTC-05:00)

Daily predictions for brighter satellites

Satellite Brightness Start Highest point End
(mag) Time Altitude Azimuth Time Altitude Azimuth Time Altitude Azimuth
Cosmos 1818 3.6 18:18:56 10° SSW 18:24:23 85° ESE 18:29:52 10° NNE
Cosmos 407 Rocket 3.6 18:20:36 10° SSW 18:25:50 89° ESE 18:31:11 10° NNE
Cosmos 2360 Rocket 2.7 18:22:55 10° N 18:28:09 37° ENE 18:33:22 10° SE
Cosmos 2219 4.4 18:24:27 10° SSE 18:28:37 21° E 18:32:47 10° NE
ASTRO F (AKARI) 4.4 18:25:23 10° NNE 18:28:56 67° ESE 18:32:15 10° S
Cosmos 2219 Rocket 4.0 18:27:49 10° NNE 18:29:10 11° NE 18:30:31 10° ENE
Cosmos 676 Rocket 4.0 18:25:16 10° S 18:30:24 68° ESE 18:35:35 10° NNE
DNEPR-1 R/B 3.6 18:27:56 10° NNW 18:32:10 83° WSW 18:36:28 10° SSE
Meteor 1-11 Rocket 4.2 18:32:42 10° SSE 18:38:04 41° E 18:43:33 10° NNE
Nadezhda 1 Rocket 4.2 18:32:59 10° N 18:39:02 75° W 18:45:05 10° S
Cosmos 1461 3.4 18:40:54 10° NW 18:44:52 62° WSW 18:48:57 10° SSE
DELTA 2 R/B (1) 3.7 18:39:50 10° W 18:45:28 79° SSW 18:50:43 12° ESE
Cosmos 1140 Rocket 3.5 18:40:31 10° S 18:45:30 55° ESE 18:50:32 10° NNE
Cosmos 1602 3.8 18:44:52 10° S 18:48:38 54° E 18:52:28 10° NNE
Resurs 01 Rocket 2.4 18:45:07 10° SE 18:48:57 30° ENE 18:52:49 10° N
Cosmos 1300 Rocket 3.6 18:45:51 10° S 18:50:09 55° E 18:54:29 10° NNE
Cosmos 2292 Rocket 4.4 18:48:04 10° S 18:53:05 87° W 18:59:57 10° N
Cosmos 614 Rocket 4.1 18:48:32 10° S 18:53:24 48° ESE 18:58:16 10° NNE
Cosmos 1833 4.2 18:49:43 10° SSW 18:55:25 88° ESE 19:01:07 10° NNE
Abrixas rocket 3.4 18:52:39 10° SSW 18:55:30 26° SE 18:56:52 20° E
COSMO-SKYMED 1 4.3 18:52:05 10° N 18:56:05 36° WNW 19:00:03 10° SW
ALOS 2.4 18:52:22 10° SSE 18:56:52 50° ENE 19:01:23 10° N
Cosmos 2181 Rocket 4.0 18:52:49 10° N 18:59:04 68° E 19:05:23 10° SSE
Spot 2 Rocket 3.8 18:56:33 10° SE 19:01:17 42° ENE 19:06:03 10° N
Cosmos 2333 Rocket 3.7 18:59:27 10° NNE 19:03:05 17° NE 19:04:11 16° ENE
FREGAT/IRIS 2.8 19:01:29 10° S 19:04:33 76° WSW 19:07:39 10° NNW
SL-16 R/B 3.6 18:59:33 10° NW 19:04:51 42° WSW 19:10:08 10° S
Helios 1A 4.1 19:04:17 22° E 19:05:04 23° ENE 19:08:21 10° NNE
NOSS 8 (E) 4.4 19:02:24 10° SSW 19:05:51 83° ESE 19:09:17 11° NE
Resurs 1-3 4.0 19:02:43 10° SE 19:06:47 39° ENE 19:10:52 10° N
Cosmos 1340 2.8 19:03:38 10° NNW 19:07:26 77° W 19:11:12 10° S
Cosmos 1709 Rocket 4.3 19:06:17 10° SSW 19:12:30 71° W 19:18:40 10° N
Cosmos 2074 Rocket 4.2 19:06:40 10° SSE 19:12:36 48° E 19:18:36 10° NNE
Cosmos 1850 Rocket 4.0 19:07:25 10° S 19:12:37 62° ESE 19:17:53 10° NNE
Cosmos 2184 Rocket 4.2 19:09:31 10° SSE 19:15:33 49° E 19:21:33 10° NNE
Envisat 4.4 19:18:30 20° NE 19:18:30 20° NE 19:21:28 10° NNE
Helios 1B rocket 3.1 19:18:13 30° ENE 19:18:54 32° E 19:22:38 10° SSE
FengYun 1-2 T 4.1 19:13:26 10° SSE 19:18:54 80° ENE 19:24:25 10° N
NOSS 8 (H) 4.3 19:16:33 10° SSW 19:19:57 83° ESE 19:21:51 25° NE
Intercosmos 24 4.5 19:16:25 10° SSE 19:20:22 49° E 19:25:52 10° NNE
Cosmos 2322 Rocket 4.3 19:16:24 10° NW 19:21:08 29° WSW 19:25:53 10° SSW
HJ-1C 3.4 19:18:19 10° S 19:21:41 82° WSW 19:25:04 10° NNW
Okean 2 4.4 19:19:12 10° NNE 19:22:00 27° NE 19:22:00 27° NE
SJ-6B 3.8 19:19:08 10° S 19:23:02 50° W 19:26:54 10° NNW
Okean 1 Rocket 3.2 19:20:27 10° S 19:24:56 80° W 19:29:27 10° N
Tiangong 2 3.1 19:22:35 10° W 19:25:07 23° SSW 19:26:32 17° S
Meteor 1-5 Rocket 4.4 19:19:55 10° S 19:25:43 55° E 19:31:29 10° NNE
FENGYUN 3A 3.7 19:21:20 10° SSE 19:26:44 86° WSW 19:32:12 10° NNW
Genesis I 3.3 19:23:31 10° NNW 19:27:23 53° NE 19:28:05 46° E
Meteor 1-19 Rocket 4.5 19:23:41 10° NNW 19:29:22 74° W 19:35:06 10° S
SAR-Lupe-4 3.7 19:30:26 49° ENE 19:30:26 49° ENE 19:33:44 10° N
Hubble Space Telescope 3.1 19:30:05 10° S 19:31:23 11° SSE 19:31:23 11° SSE
Gbstr 26 Del rocket 3.3 19:31:47 10° WSW 19:35:29 50° NW 19:36:53 31° NNE
Cosmos 2322 4.0 19:32:03 10° NNW 19:37:44 67° WSW 19:43:21 10° S
Cosmos 1238 Rocket 4.2 19:35:48 10° NNW 19:38:24 28° W 19:41:01 10° SSW
CZ-2D R/B 3.1 19:43:32 56° SSE 19:44:17 85° ENE 19:48:07 10° N
Cosmos 2154 Rocket 4.3 19:38:37 10° SSE 19:44:33 44° E 19:50:29 10° NNE
Cosmos 2285 Rocket 4.0 19:38:50 10° N 19:45:12 58° ENE 19:47:50 35° SE
GEOS 3 Rocket 4.0 19:40:01 10° NNE 19:45:12 64° NW 19:50:25 10° SW
Cosmos 1025 Rocket 2.9 19:41:46 10° N 19:46:11 86° E 19:48:42 25° S
GPS 2-04 Rocket1 3.4 19:42:21 10° WSW 19:46:27 44° SSE 19:46:30 44° SSE
H-2A R/B 3.2 19:46:26 13° S 19:49:35 57° W 19:53:17 10° NNW
Meteor 2-13 Rocket 4.3 19:44:28 10° S 19:50:25 62° E 19:56:25 10° NNE
Cosmos 1536 3.9 19:46:49 10° SSW 19:50:39 44° W 19:54:29 10° N
Okean 1-7 Rocket 4.1 19:47:55 10° NNW 19:52:22 59° W 19:56:46 10° S
Meteor 1-23 Rocket 4.3 19:47:18 10° NNW 19:53:08 80° W 19:58:51 10° S
COSMOS 2428 2.6 19:47:25 10° NNW 19:53:08 85° ENE 19:55:38 35° SSE
Cosmos 2237 4.3 19:47:39 10° NNW 19:53:23 75° WSW 19:57:28 20° SSE
Cosmos 2333 4.1 19:48:46 10° NNW 19:54:31 76° ENE 19:56:21 45° SE
Meteor 2-4 Rocket 4.1 19:49:58 10° NNW 19:55:25 60° W 20:00:42 10° S
Cosmos 2237 Rocket 3.3 19:52:08 10° N 19:55:53 28° NE 19:55:53 28° NE
NOSS 0 Rocket 4.1 20:02:46 10° NNW 20:08:24 53° NE 20:08:24 53° NE
Cosmos 2360 Rocket 4.0 20:07:10 10° NW 20:11:58 29° WSW 20:16:45 10° SSW
Cosmos 2219 4.0 20:06:44 10° SW 20:12:19 52° WNW 20:17:55 10° NNE
Cosmos 2219 Rocket 2.2 20:08:33 10° NNW 20:13:35 65° NNE 20:13:35 65° NNE
Cosmos 2227 Rocket 4.4 20:13:00 10° S 20:13:25 12° S 20:13:25 12° S
Resurs 01 Rocket 3.9 20:21:57 10° SSW 20:25:25 22° W 20:28:54 10° NW
SL-16 R/B 4.2 20:25:56 10° N 20:27:20 16° NNE 20:27:20 16° NNE
ATLAS CENTAUR R/B 4.4 20:29:58 10° SW 20:30:46 14° WSW 20:30:46 14° WSW
BREEZE-M DEB (TANK) 4.2 20:30:16 10° NW 20:34:25 87° SW 20:35:01 76° SE
Cosmos 2333 Rocket 3.0 20:42:14 10° NNW 20:46:14 46° NW 20:46:14 46° NW
USA 229 DEB 4.1 20:47:04 10° NW 20:54:03 58° WSW 20:54:32 56° SW
USA 229 4.1 20:47:09 10° NW 20:54:09 58° WSW 20:54:36 57° SW
